Total_Precipitation_Accumulation
0.04 0.03 0.03 0.02 0.03 0.03 0.02 0.03 0.02 0.02 0.02 0.02 0.02 0.03 0.03 0.03 0.03 0.03 0.02 0.02 0.02 0.03 0.02 0.01 0.02 0.02 0.01 0.02 0.01 0.00 0.00 0.00 0.00 0.00 0.00 0.00 0.00 0.00 0.00 0.00 0.00 0.00 0.00 0.00 0.00 0.00 0.01 0.01 0.01 0.00 0.01 0.01 0.06 0.17 0.53 0.66 0.88 0.93 2.11 1.52 2.46 2.29 1.92 1.27 1.02 1.60 0.63 1.02 0.58 0.83 1.08 0.80 0.47 0.36 0.77 0.58 0.71 0.62 0.53 0.46 0.08 0.05 0.07 0.02 0.01 0.01 0.00 0.02
0.03 0.03 0.03 0.03 0.03 0.02 0.02 0.02 0.01 0.02 0.01 0.02 0.03 0.02 0.02 0.02 0.03 0.03 0.02 0.03 0.03 0.03 0.02 0.02 0.02 0.01 0.02 0.01 0.00 0.00 0.01 0.00 0.00 0.00 0.00 0.00 0.00 0.00 0.00 0.00 0.00 0.00 0.00 0.01 0.00 0.00 0.00 0.00 0.00 0.00 0.00 0.08 0.09 0.42 0.16 1.55 0.31 1.66 1.31 1.76 2.41 1.51 1.40 1.17 0.74 0.66 0.93 0.86 0.55 0.75 1.16 0.97 0.40 0.54 0.55 1.40 0.65 0.65 0.58 0.15 0.13 0.07 0.03 0.01 0.01 0.00 0.01 0.02
0.03 0.02 0.03 0.03 0.03 0.02 0.02 0.02 0.02 0.02 0.02 0.02 0.02 0.02 0.02 0.02 0.02 0.03 0.03 0.03 0.03 0.02 0.02 0.02 0.02 0.02 0.02 0.01 0.00 0.00 0.01 0.00 0.00 0.00 0.00 0.00 0.00 0.00 0.00 0.00 0.00 0.00 0.00 0.00 0.00 0.00 0.00 0.00 0.00 0.00 0.02 0.19 0.22 1.27 0.25 1.55 0.75 1.02 1.22 1.71 1.93 0.69 1.51 0.53 0.46 0.78 0.71 0.36 0.62 0.63 0.53 0.88 0.41 0.43 0.13 1.00 0.59 0.53 0.52 0.09 0.08 0.05 0.06 0.03 0.02 0.01 0.02 0.03
0.02 0.03 0.02 0.02 0.02 0.01 0.02 0.02 0.02 0.02 0.02 0.02 0.02 0.01 0.02 0.02 0.02 0.03 0.04 0.03 0.02 0.02 0.02 0.03 0.03 0.02 0.02 0.00 0.00 0.01 0.00 0.00 0.00 0.00 0.00 0.00 0.00 0.00 0.00 0.00 0.00 0.00 0.00 0.00 0.00 0.00 0.00 0.00 0.00 0.00 0.00 0.09 0.54 0.14 0.70 1.04 0.70 0.98 1.09 1.56 1.41 1.14 0.94 0.92 0.98 1.01 0.67 0.63 0.33 0.67 0.29 0.43 0.32 0.38 0.54 0.42 0.33 0.40 0.52 0.06 0.02 0.01 0.01 0.02 0.01 0.01 0.02 0.03
0.02 0.02 0.03 0.02 0.02 0.01 0.01 0.02 0.02 0.02 0.02 0.02 0.01 0.02 0.02 0.02 0.03 0.03 0.03 0.02 0.02 0.01 0.02 0.03 0.02 0.02 0.00 0.00 0.00 0.00 0.00 0.00 0.00 0.00 0.00 0.00 0.00 0.00 0.00 0.00 0.00 0.00 0.00 0.00 0.00 0.00 0.00 0.00 0.00 0.01 0.03 0.50 0.54 0.16 0.47 0.23 0.46 0.21 0.96 0.56 0.51 0.83 1.44 1.19 0.82 0.88 0.56 0.97 0.67 0.66 0.26 0.78 0.29 0.94 0.77 0.37 0.76 0.87 0.34 0.10 0.00 0.01 0.00 0.01 0.00 0.01 0.00 0.01
0.02 0.03 0.02 0.02 0.02 0.01 0.02 0.02 0.02 0.01 0.01 0.01 0.01 0.01 0.02 0.02 0.02 0.02 0.02 0.01 0.02 0.02 0.02 0.02 0.02 0.00 0.00 0.00 0.00 0.01 0.00 0.00 0.00 0.00 0.00 0.00 0.00 0.00 0.00 0.00 0.00 0.00 0.00 0.00 0.00 0.00 0.00 0.00 0.00 0.00 0.02 0.16 0.68 0.52 0.47 0.68 0.33 1.03 0.52 0.62 0.46 0.57 1.55 0.99 1.21 0.69 1.10 1.27 0.98 0.82 0.34 0.33 0.51 0.42 0.35 0.73 1.16 0.50 0.25 0.16 0.01 0.01 0.00 0.01 0.00 0.00 0.02 0.01
0.02 0.02 0.02 0.02 0.02 0.02 0.02 0.02 0.01 0.01 0.01 0.01 0.01 0.01 0.01 0.01 0.01 0.01 0.01 0.01 0.02 0.02 0.02 0.01 0.01 0.01 0.00 0.00 0.00 0.00 0.00 0.00 0.00 0.00 0.00 0.00 0.00 0.00 0.00 0.00 0.00 0.00 0.00 0.00 0.00 0.00 0.00 0.00 0.00 0.00 0.05 0.18 0.50 0.26 0.16 0.50 0.05 0.39 1.17 0.50 0.74 0.79 0.86 1.02 1.14 0.71 1.35 1.22 1.02 1.45 0.46 0.71 0.48 0.37 0.68 0.72 0.46 0.27 0.33 0.02 0.00 0.00 0.00 0.00 0.00 0.00 0.01 0.00
0.02 0.01 0.01 0.01 0.02 0.02 0.02 0.01 0.01 0.02 0.01 0.01 0.02 0.02 0.02 0.01 0.01 0.01 0.01 0.02 0.02 0.01 0.02 0.02 0.02 0.00 0.00 0.00 0.00 0.00 0.00 0.00 0.00 0.00 0.00 0.00 0.00 0.00 0.00 0.00 0.00 0.00 0.00 0.00 0.00 0.00 0.00 0.00 0.00 0.00 0.03 0.62 0.46 0.56 0.11 0.13 0.39 0.60 0.82 0.60 0.74 0.85 0.98 1.10 0.84 1.03 0.68 1.08 1.07 1.01 0.57 0.68 0.42 0.71 0.41 0.85 0.43 0.07 0.07 0.01 0.00 0.00 0.00 0.00 0.00 0.00 0.00 0.01
0.02 0.02 0.01 0.01 0.02 0.02 0.01 0.01 0.01 0.01 0.01 0.01 0.02 0.02 0.02 0.01 0.01 0.01 0.01 0.01 0.01 0.02 0.02 0.03 0.00 0.00 0.01 0.00 0.00 0.00 0.00 0.00 0.00 0.00 0.00 0.00 0.00 0.00 0.00 0.00 0.00 0.00 0.00 0.00 0.00 0.00 0.00 0.00 0.00 0.02 0.48 0.15 0.51 0.14 0.05 0.09 0.73 0.24 0.54 0.73 1.05 0.85 0.97 0.95 1.39 1.06 0.87 1.29 1.47 1.78 0.92 0.48 0.71 0.27 0.93 0.53 0.33 0.05 0.04 0.00 0.00 0.00 0.00 0.00 0.01 0.00 0.00 0.00
0.02 0.01 0.01 0.01 0.02 0.02 0.02 0.01 0.01 0.01 0.01 0.01 0.01 0.01 0.02 0.01 0.01 0.01 0.01 0.01 0.01 0.02 0.02 0.01 0.00 0.00 0.00 0.00 0.00 0.00 0.00 0.00 0.00 0.00 0.00 0.00 0.00 0.00 0.00 0.00 0.00 0.00 0.00 0.00 0.00 0.00 0.00 0.00 0.06 0.02 0.00 0.01 0.01 0.04 0.03 0.05 0.30 0.10 0.25 0.78 1.17 0.77 0.87 1.13 1.94 1.25 1.65 1.84 1.99 1.87 0.90 1.25 0.67 0.46 0.84 0.20 0.32 0.14 0.02 0.00 0.00 0.00 0.00 0.00 0.01 0.00 0.00 0.00
0.01 0.01 0.01 0.01 0.01 0.01 0.01 0.02 0.02 0.01 0.01 0.01 0.01 0.01 0.01 0.01 0.01 0.01 0.01 0.01 0.01 0.01 0.02 0.00 0.00 0.01 0.00 0.00 0.00 0.00 0.00 0.00 0.00 0.00 0.00 0.00 0.00 0.00 0.00 0.00 0.00 0.00 0.00 0.00 0.00 0.00 0.00 0.00 0.00 0.00 0.00 0.17 0.06 0.30 0.00 0.10 0.04 0.40 0.64 0.69 0.85 1.14 1.33 1.22 2.15 2.09 0.80 1.26 1.56 2.01 1.15 0.89 0.57 0.63 0.52 0.18 0.10 0.03 0.03 0.00 0.00 0.00 0.00 0.00 0.00 0.00 0.00 0.00
0.01 0.01 0.01 0.01 0.01 0.01 0.01 0.02 0.01 0.01 0.01 0.01 0.01 0.01 0.01 0.01 0.01 0.01 0.01 0.01 0.01 0.01 0.01 0.00 0.00 0.00 0.00 0.00 0.00 0.00 0.00 0.00 0.00 0.00 0.00 0.00 0.00 0.00 0.00 0.00 0.00 0.00 0.00 0.00 0.00 0.00 0.00 0.00 0.00 0.00 0.05 0.00 0.07 0.04 0.11 0.07 0.01 0.44 0.69 0.95 0.88 1.39 1.24 1.73 2.13 1.82 1.05 0.88 1.57 1.45 1.51 1.07 0.58 1.12 0.37 0.10 0.07 0.16 0.03 0.01 0.00 0.00 0.00 0.00 0.00 0.00 0.01 0.00
0.00 0.01 0.01 0.01 0.01 0.01 0.01 0.01 0.01 0.01 0.01 0.01 0.01 0.01 0.01 0.01 0.01 0.01 0.01 0.00 0.00 0.00 0.01 0.00 0.00 0.00 0.00 0.00 0.00 0.00 0.00 0.00 0.00 0.00 0.00 0.00 0.00 0.00 0.00 0.00 0.00 0.00 0.00 0.00 0.00 0.00 0.00 0.00 0.00 0.00 0.00 0.00 0.00 0.23 0.01 0.06 0.34 0.47 0.96 1.68 1.08 1.39 1.33 1.71 2.06 1.77 1.69 1.31 1.63 1.77 1.78 1.11 1.02 0.65 0.26 0.11 0.16 0.07 0.02 0.01 0.00 0.01 0.00 0.00 0.00 0.00 0.01 0.01
0.01 0.01 0.01 0.01 0.01 0.01 0.01 0.01 0.01 0.01 0.01 0.01 0.01 0.01 0.01 0.01 0.01 0.00 0.00 0.00 0.00 0.01 0.01 0.00 0.00 0.00 0.00 0.00 0.00 0.00 0.00 0.00 0.00 0.00 0.00 0.00 0.00 0.00 0.00 0.00 0.00 0.00 0.00 0.00 0.00 0.00 0.00 0.00 0.00 0.01 0.00 0.00 0.14 0.01 0.51 0.18 0.13 0.46 0.91 0.77 1.44 1.11 1.89 1.55 1.20 1.54 1.07 0.86 1.25 0.79 1.63 1.63 1.09 1.23 0.38 0.28 0.12 0.11 0.04 0.04 0.01 0.01 0.01 0.00 0.00 0.00 0.00 0.00
0.01 0.01 0.01 0.01 0.01 0.01 0.01 0.01 0.01 0.01 0.01 0.01 0.01 0.01 0.01 0.00 0.00 0.00 0.00 0.00 0.01 0.00 0.01 0.01 0.00 0.00 0.00 0.00 0.00 0.00 0.00 0.00 0.00 0.00 0.00 0.00 0.00 0.00 0.00 0.00 0.00 0.00 0.00 0.00 0.00 0.00 0.00 0.00 0.00 0.01 0.00 0.00 0.00 0.09 0.06 0.40 0.31 0.20 0.40 0.85 0.66 0.69 1.25 1.63 1.57 1.27 1.51 0.72 0.96 1.56 1.75 1.16 0.93 0.81 0.63 0.55 0.17 0.26 0.11 0.03 0.05 0.01 0.01 0.00 0.00 0.01 0.01 0.00
0.00 0.01 0.01 0.01 0.01 0.01 0.00 0.00 0.00 0.01 0.01 0.01 0.00 0.01 0.00 0.00 0.00 0.00 0.00 0.00 0.00 0.00 0.01 0.00 0.00 0.00 0.00 0.00 0.00 0.00 0.00 0.00 0.00 0.00 0.00 0.00 0.00 0.00 0.00 0.00 0.00 0.00 0.00 0.00 0.00 0.00 0.00 0.00 0.00 0.00 0.00 0.00 0.00 0.20 0.15 0.06 0.18 0.23 0.27 1.06 0.91 0.54 1.43 1.10 1.54 1.24 0.77 0.63 1.35 1.89 1.97 1.12 0.87 0.52 0.28 0.23 0.14 0.10 0.12 0.03 0.03 0.08 0.01 0.00 0.00 0.00 0.01 0.02
0.00 0.00 0.00 0.01 0.01 0.01 0.00 0.00 0.00 0.00 0.00 0.01 0.00 0.00 0.00 0.00 0.00 0.00 0.00 0.00 0.01 0.00 0.00 0.00 0.00 0.00 0.00 0.00 0.00 0.00 0.00 0.00 0.00 0.00 0.00 0.00 0.00 0.00 0.00 0.00 0.00 0.00 0.00 0.00 0.00 0.00 0.00 0.00 0.00 0.00 0.00 0.00 0.00 0.01 0.10 0.06 0.41 0.46 0.23 0.73 0.52 1.08 0.78 0.66 0.74 0.74 0.64 1.06 0.77 1.26 1.51 0.96 0.52 0.33 0.65 0.50 0.42 0.25 0.39 0.16 0.10 0.11 0.09 0.03 0.02 0.01 0.01 0.00
0.00 0.00 0.00 0.00 0.01 0.01 0.01 0.00 0.00 0.00 0.00 0.00 0.00 0.00 0.00 0.00 0.00 0.00 0.00 0.00 0.00 0.00 0.00 0.00 0.00 0.00 0.00 0.00 0.00 0.00 0.00 0.00 0.00 0.00 0.00 0.00 0.00 0.00 0.00 0.00 0.00 0.00 0.00 0.00 0.00 0.00 0.00 0.00 0.00 0.00 0.00 0.00 0.00 0.02 0.02 0.29 0.41 0.55 0.20 0.75 0.23 0.39 0.36 0.87 0.57 0.60 0.48 0.68 0.66 0.74 1.23 0.62 0.80 0.28 0.35 0.59 0.51 0.78 0.66 0.56 0.69 0.15 0.13 0.03 0.02 0.05 0.03 0.01
0.00 0.00 0.00 0.00 0.01 0.01 0.00 0.00 0.00 0.00 0.00 0.00 0.00 0.00 0.01 0.00 0.00 0.00 0.00 0.00 0.00 0.00 0.00 0.00 0.00 0.00 0.00 0.00 0.00 0.00 0.00 0.00 0.00 0.00 0.00 0.00 0.00 0.00 0.00 0.00 0.00 0.00 0.00 0.00 0.00 0.00 0.00 0.00 0.00 0.00 0.00 0.00 0.00 0.00 0.02 0.10 0.06 0.13 0.40 0.60 0.38 0.52 0.70 0.52 0.67 0.27 0.34 0.51 0.68 0.60 0.82 0.71 0.72 0.43 0.69 0.56 0.26 0.67 0.32 0.54 0.52 0.53 0.33 0.07 0.03 0.02 0.01 0.01
0.00 0.00 0.00 0.00 0.00 0.01 0.00 0.00 0.00 0.00 0.01 0.00 0.00 0.00 0.00 0.00 0.00 0.00 0.00 0.00 0.00 0.00 0.00 0.00 0.00 0.00 0.00 0.00 0.00 0.00 0.00 0.00 0.00 0.00 0.00 0.00 0.00 0.00 0.00 0.00 0.00 0.00 0.00 0.00 0.00 0.00 0.00 0.00 0.00 0.00 0.00 0.00 0.01 0.01 0.00 0.01 0.02 0.07 0.27 0.15 0.37 0.40 0.42 0.47 0.50 0.36 0.28 0.49 0.48 0.52 0.81 0.97 0.61 0.72 0.80 1.15 0.91 0.48 0.51 0.68 0.36 0.48 0.28 0.13 0.07 0.05 0.02 0.05
0.00 0.00 0.00 0.00 0.00 0.00 0.00 0.00 0.00 0.00 0.02 0.00 0.00 0.00 0.00 0.00 0.00 0.00 0.00 0.00 0.00 0.00 0.00 0.00 0.00 0.00 0.00 0.00 0.00 0.00 0.00 0.00 0.00 0.00 0.00 0.00 0.00 0.00 0.00 0.00 0.00 0.00 0.00 0.00 0.00 0.00 0.00 0.00 0.00 0.00 0.00 0.01 0.00 0.00 0.00 0.01 0.02 0.05 0.15 0.19 0.40 0.18 0.44 0.37 0.48 0.30 0.75 0.69 0.72 0.74 0.91 1.18 0.96 1.54 1.60 1.37 1.03 0.44 0.38 0.33 0.68 0.60 0.69 0.44 0.38 0.04 0.02 0.05
0.00 0.00 0.00 0.00 0.00 0.00 0.00 0.00 0.00 0.01 0.01 0.00 0.00 0.00 0.00 0.00 0.00 0.00 0.00 0.00 0.00 0.00 0.00 0.00 0.00 0.00 0.00 0.00 0.00 0.00 0.00 0.00 0.00 0.00 0.00 0.00 0.00 0.00 0.00 0.00 0.00 0.00 0.00 0.00 0.00 0.00 0.00 0.00 0.00 0.00 0.00 0.00 0.00 0.00 0.00 0.00 0.01 0.00 0.05 0.17 0.17 0.16 0.47 0.27 0.52 0.42 0.65 0.63 1.35 1.32 1.10 1.31 1.76 2.24 2.00 1.41 1.45 1.29 0.72 0.42 0.52 0.66 0.80 0.85 0.22 0.19 0.04 0.03
0.00 0.00 0.00 0.00 0.00 0.00 0.00 0.00 0.00 0.01 0.00 0.00 0.00 0.00 0.00 0.00 0.00 0.00 0.00 0.00 0.00 0.00 0.00 0.00 0.00 0.00 0.00 0.00 0.00 0.00 0.00 0.00 0.00 0.00 0.00 0.00 0.00 0.00 0.00 0.00 0.00 0.00 0.00 0.00 0.00 0.00 0.00 0.00 0.00 0.00 0.00 0.01 0.00 0.00 0.00 0.00 0.00 0.00 0.07 0.17 0.07 0.40 0.14 0.44 0.30 0.46 0.73 0.65 1.17 1.19 1.51 1.64 2.06 1.85 1.35 2.04 2.03 2.06 1.73 0.75 0.62 0.99 0.65 0.46 0.37 0.26 0.12 0.03
0.00 0.00 0.00 0.00 0.00 0.00 0.00 0.00 0.01 0.01 0.00 0.00 0.00 0.00 0.00 0.00 0.00 0.00 0.00 0.00 0.00 0.00 0.00 0.00 0.00 0.00 0.00 0.00 0.00 0.00 0.00 0.00 0.00 0.00 0.00 0.00 0.00 0.00 0.00 0.00 0.00 0.00 0.00 0.00 0.00 0.00 0.00 0.00 0.00 0.00 0.00 0.00 0.00 0.00 0.00 0.00 0.00 0.00 0.00 0.00 0.03 0.15 0.23 0.18 0.50 0.46 0.63 0.60 0.83 1.43 1.54 2.14 2.42 1.64 1.49 1.21 1.18 1.81 0.98 0.64 0.77 0.35 0.44 0.73 0.47 0.54 0.14 0.08
0.00 0.00 0.00 0.00 0.00 0.00 0.00 0.01 0.00 0.00 0.00 0.00 0.00 0.00 0.00 0.00 0.00 0.00 0.00 0.00 0.00 0.00 0.00 0.00 0.00 0.00 0.00 0.00 0.00 0.00 0.00 0.00 0.00 0.00 0.00 0.00 0.00 0.00 0.00 0.00 0.00 0.00 0.00 0.00 0.00 0.00 0.00 0.00 0.00 0.00 0.01 0.00 0.00 0.00 0.00 0.00 0.00 0.00 0.00 0.00 0.01 0.03 0.04 0.09 0.22 0.28 0.51 1.01 1.47 0.77 1.15 1.16 1.25 0.93 1.17 1.25 0.74 0.75 0.44 0.42 0.28 0.28 0.77 0.36 0.45 0.40 0.19 0.06
0.00 0.00 0.00 0.00 0.01 0.00 0.00 0.00 0.00 0.00 0.00 0.00 0.00 0.00 0.00 0.00 0.00 0.00 0.00 0.00 0.00 0.00 0.00 0.00 0.00 0.00 0.00 0.00 0.00 0.00 0.00 0.00 0.00 0.00 0.00 0.00 0.00 0.00 0.00 0.00 0.00 0.00 0.00 0.00 0.00 0.00 0.00 0.00 0.00 0.00 0.00 0.00 0.00 0.01 0.00 0.00 0.00 0.00 0.08 0.00 0.00 0.02 0.07 0.30 0.26 0.31 0.56 0.61 0.70 0.47 0.77 1.18 0.89 1.16 0.93 0.97 0.41 0.46 0.46 0.26 0.30 0.17 0.22 0.19 0.36 1.03 0.14 0.24
0.00 0.00 0.00 0.00 0.00 0.01 0.00 0.00 0.00 0.00 0.00 0.00 0.00 0.00 0.00 0.00 0.00 0.00 0.00 0.00 0.00 0.00 0.00 0.00 0.00 0.00 0.00 0.00 0.00 0.00 0.00 0.01 0.00 0.00 0.00 0.00 0.00 0.00 0.00 0.00 0.00 0.00 0.00 0.00 0.00 0.00 0.00 0.00 0.00 0.00 0.00 0.00 0.00 0.00 0.00 0.00 0.00 0.03 0.00 0.03 0.00 0.00 0.01 0.15 0.25 0.30 0.39 0.48 0.72 0.36 0.47 0.90 0.85 0.80 0.73 0.60 0.88 0.59 1.06 0.35 0.23 0.22 0.06 0.15 0.21 0.36 0.17 0.06
0.00 0.00 0.00 0.00 0.00 0.02 0.00 0.00 0.00 0.00 0.00 0.00 0.00 0.00 0.00 0.00 0.00 0.00 0.00 0.02 0.00 0.00 0.00 0.00 0.00 0.00 0.00 0.00 0.00 0.00 0.01 0.00 0.00 0.00 0.00 0.00 0.00 0.00 0.00 0.00 0.00 0.00 0.00 0.00 0.00 0.00 0.00 0.00 0.00 0.00 0.00 0.00 0.00 0.00 0.00 0.00 0.00 0.04 0.00 0.00 0.03 0.03 0.01 0.01 0.17 0.52 0.47 0.24 0.57 0.35 0.35 0.27 0.38 0.61 0.50 0.82 0.80 0.42 0.48 0.21 0.30 0.13 0.09 0.04 0.34 0.11 0.12 0.08
0.00 0.00 0.00 0.00 0.00 0.00 0.00 0.00 0.00 0.00 0.00 0.00 0.00 0.00 0.00 0.00 0.00 0.00 0.05 0.04 0.00 0.00 0.00 0.00 0.00 0.00 0.00 0.00 0.00 0.00 0.00 0.00 0.00 0.00 0.00 0.00 0.00 0.00 0.00 0.00 0.00 0.00 0.00 0.00 0.00 0.00 0.00 0.00 0.00 0.00 0.00 0.00 0.00 0.00 0.00 0.00 0.00 0.00 0.00 0.00 0.00 0.02 0.01 0.02 0.13 0.11 0.20 0.08 0.28 0.36 0.20 0.29 0.44 0.70 0.91 0.81 0.67 0.52 0.34 0.25 0.10 0.10 0.07 0.08 0.22 0.09 0.11 0.10
0.00 0.00 0.00 0.00 0.00 0.00 0.00 0.00 0.00 0.00 0.00 0.00 0.00 0.00 0.00 0.00 0.00 0.03 0.03 0.04 0.00 0.00 0.00 0.00 0.00 0.00 0.00 0.00 0.00 0.00 0.00 0.00 0.00 0.00 0.00 0.00 0.00 0.00 0.00 0.00 0.00 0.00 0.00 0.00 0.00 0.00 0.00 0.00 0.00 0.00 0.00 0.00 0.00 0.00 0.00 0.00 0.00 0.00 0.00 0.02 0.01 0.00 0.07 0.04 0.05 0.17 0.21 0.09 0.13 0.14 0.15 0.05 0.67 0.73 0.74 0.57 0.53 0.47 0.34 0.19 0.40 0.12 0.08 0.07 0.06 0.06 0.04 0.10
0.00 0.00 0.00 0.01 0.01 0.00 0.00 0.00 0.00 0.00 0.00 0.00 0.00 0.00 0.00 0.00 0.02 0.04 0.06 0.00 0.00 0.00 0.00 0.00 0.00 0.00 0.00 0.00 0.00 0.00 0.00 0.00 0.00 0.00 0.00 0.00 0.00 0.00 0.00 0.00 0.00 0.00 0.00 0.00 0.00 0.00 0.00 0.00 0.00 0.00 0.00 0.00 0.00 0.00 0.00 0.00 0.00 0.00 0.00 0.00 0.04 0.07 0.06 0.17 0.13 0.09 0.27 0.17 0.03 0.03 0.11 0.08 0.15 0.50 0.37 0.07 0.13 0.20 0.44 0.20 0.18 0.09 0.04 0.05 0.06 0.08 0.07 0.63
0.00 0.00 0.00 0.01 0.00 0.01 0.00 0.00 0.00 0.00 0.00 0.00 0.00 0.00 0.00 0.14 0.06 0.14 0.04 0.00 0.02 0.00 0.00 0.00 0.00 0.00 0.00 0.00 0.00 0.00 0.00 0.00 0.00 0.00 0.00 0.00 0.00 0.00 0.00 0.00 0.00 0.00 0.00 0.00 0.00 0.00 0.00 0.00 0.00 0.00 0.00 0.00 0.00 0.00 0.00 0.00 0.00 0.00 0.00 0.00 0.02 0.08 0.03 0.38 0.22 0.21 0.03 0.06 0.05 0.04 0.06 0.48 0.12 0.26 0.09 0.17 0.20 0.04 0.12 0.11 0.12 0.08 0.03 0.03 0.05 0.05 0.04 0.06
0.00 0.00 0.01 0.00 0.00 0.00 0.00 0.00 0.00 0.00 0.00 0.00 0.00 0.00 0.04 0.16 0.06 0.02 0.06 0.00 0.04 0.00 0.00 0.00 0.00 0.00 0.00 0.00 0.00 0.00 0.00 0.00 0.00 0.00 0.00 0.00 0.00 0.00 0.00 0.00 0.00 0.00 0.04 0.00 0.00 0.00 0.00 0.00 0.00 0.00 0.00 0.00 0.00 0.00 0.00 0.00 0.00 0.00 0.00 0.00 0.03 0.05 0.07 0.04 0.10 0.06 0.06 0.00 0.05 0.10 0.26 0.13 0.20 0.21 0.02 0.07 0.03 0.10 0.09 0.09 0.16 0.11 0.03 0.02 0.04 0.05 0.05 0.13
0.00 0.00 0.00 0.00 0.00 0.00 0.00 0.00 0.00 0.00 0.00 0.00 0.00 0.01 0.02 0.14 0.02 0.00 0.00 0.00 0.00 0.00 0.00 0.00 0.00 0.00 0.00 0.00 0.00 0.00 0.00 0.00 0.00 0.00 0.00 0.00 0.00 0.00 0.00 0.00 0.00 0.00 0.00 0.00 0.00 0.00 0.00 0.00 0.00 0.00 0.00 0.00 0.00 0.00 0.00 0.00 0.00 0.00 0.00 0.00 0.02 0.03 0.01 0.10 0.11 0.15 0.06 0.10 0.30 0.39 0.22 0.40 0.08 0.38 0.06 0.07 0.01 0.02 0.08 0.10 0.11 0.18 0.09 0.03 0.20 0.08 0.10 0.08
0.00 0.00 0.00 0.00 0.00 0.00 0.00 0.00 0.00 0.00 0.00 0.00 0.00 0.07 0.10 0.04 0.01 0.05 0.02 0.01 0.00 0.00 0.00 0.00 0.00 0.00 0.00 0.00 0.00 0.00 0.00 0.00 0.00 0.00 0.00 0.00 0.00 0.00 0.00 0.00 0.00 0.00 0.00 0.00 0.00 0.00 0.00 0.00 0.00 0.00 0.00 0.00 0.00 0.00 0.00 0.00 0.00 0.00 0.00 0.00 0.02 0.01 0.02 0.14 0.08 0.17 0.21 0.17 0.05 0.23 0.27 0.37 0.64 0.29 0.22 0.20 0.03 0.04 0.02 0.03 0.11 0.13 0.18 0.28 0.25 0.17 0.08 0.07
0.00 0.00 0.00 0.00 0.00 0.00 0.00 0.00 0.00 0.00 0.00 0.00 0.03 0.12 0.08 0.02 0.04 0.00 0.01 0.00 0.00 0.00 0.00 0.00 0.00 0.00 0.00 0.02 0.00 0.00 0.00 0.00 0.00 0.00 0.00 0.00 0.00 0.02 0.00 0.00 0.00 0.00 0.00 0.00 0.01 0.00 0.00 0.00 0.00 0.00 0.00 0.00 0.00 0.00 0.00 0.00 0.00 0.00 0.00 0.00 0.01 0.00 0.01 0.02 0.01 0.00 0.04 0.07 0.29 0.10 0.18 0.23 0.05 0.23 0.45 0.20 0.67 0.78 0.34 0.38 0.51 0.68 0.70 0.71 0.19 0.37 0.21 0.15
0.00 0.00 0.00 0.00 0.00 0.00 0.00 0.00 0.00 0.00 0.00 0.00 0.12 0.07 0.00 0.00 0.00 0.00 0.00 0.00 0.00 0.00 0.00 0.00 0.00 0.00 0.00 0.00 0.00 0.00 0.00 0.00 0.00 0.00 0.00 0.00 0.00 0.00 0.00 0.00 0.00 0.00 0.00 0.00 0.00 0.00 0.00 0.00 0.00 0.00 0.00 0.00 0.00 0.00 0.00 0.00 0.00 0.00 0.00 0.00 0.00 0.00 0.01 0.01 0.11 0.05 0.01 0.05 0.12 0.10 0.28 0.48 0.07 0.47 0.12 0.27 0.34 0.29 0.62 0.51 0.52 0.58 0.58 0.56 0.51 0.44 0.67 0.70
0.00 0.00 0.00 0.00 0.00 0.00 0.00 0.00 0.00 0.00 0.00 0.05 0.09 0.00 0.00 0.01 0.00 0.00 0.00 0.00 0.01 0.00 0.01 0.00 0.00 0.00 0.00 0.00 0.00 0.00 0.00 0.00 0.00 0.00 0.00 0.00 0.01 0.00 0.00 0.00 0.00 0.00 0.00 0.00 0.00 0.00 0.00 0.00 0.00 0.00 0.00 0.00 0.00 0.00 0.00 0.00 0.00 0.00 0.00 0.00 0.00 0.03 0.12 0.00 0.01 0.02 0.06 0.02 0.17 0.12 0.12 0.09 0.15 0.21 0.05 0.05 0.22 0.17 0.10 0.05 0.08 0.12 0.40 0.45 0.21 0.16 0.29 0.39
0.00 0.00 0.00 0.00 0.00 0.00 0.00 0.00 0.00 0.01 0.04 0.21 0.11 0.03 0.05 0.01 0.00 0.00 0.00 0.00 0.00 0.00 0.00 0.00 0.00 0.00 0.00 0.00 0.00 0.00 0.00 0.00 0.00 0.00 0.03 0.00 0.01 0.00 0.00 0.00 0.00 0.00 0.00 0.00 0.00 0.00 0.00 0.00 0.00 0.00 0.00 0.00 0.00 0.00 0.00 0.00 0.00 0.00 0.00 0.00 0.00 0.00 0.02 0.03 0.00 0.11 0.01 0.30 0.06 0.37 0.24 0.48 0.20 0.53 0.20 0.17 0.21 0.03 0.10 0.08 0.07 0.13 0.11 0.21 0.35 0.29 0.40 0.38
0.00 0.00 0.00 0.00 0.00 0.00 0.00 0.00 0.00 0.01 0.12 0.07 0.05 0.03 0.00 0.00 0.00 0.00 0.00 0.00 0.01 0.00 0.00 0.00 0.00 0.00 0.00 0.00 0.00 0.00 0.00 0.00 0.00 0.00 0.00 0.00 0.00 0.00 0.00 0.00 0.00 0.00 0.00 0.00 0.00 0.00 0.00 0.00 0.00 0.00 0.00 0.00 0.00 0.00 0.00 0.00 0.00 0.00 0.00 0.00 0.00 0.00 0.00 0.01 0.02 0.05 0.05 0.10 0.14 0.14 0.13 0.27 0.36 0.21 0.69 0.69 0.39 0.10 0.11 0.07 0.11 0.05 0.09 0.11 0.59 0.61 0.29 0.23
0.00 0.00 0.00 0.00 0.00 0.00 0.00 0.00 0.02 0.05 0.05 0.08 0.00 0.01 0.00 0.00 0.00 0.00 0.00 0.00 0.00 0.00 0.00 0.00 0.00 0.00 0.00 0.00 0.00 0.00 0.00 0.00 0.00 0.00 0.00 0.00 0.00 0.00 0.00 0.00 0.00 0.00 0.00 0.00 0.00 0.00 0.00 0.00 0.00 0.00 0.00 0.00 0.00 0.00 0.00 0.00 0.00 0.00 0.00 0.00 0.00 0.00 0.00 0.00 0.00 0.00 0.00 0.03 0.05 0.07 0.42 0.44 0.28 0.22 0.07 0.53 0.15 0.26 0.05 0.04 0.06 0.09 0.07 0.03 0.12 0.43 0.26 0.12
0.00 0.01 0.00 0.00 0.00 0.00 0.00 0.05 0.05 0.01 0.03 0.05 0.06 0.02 0.01 0.00 0.00 0.00 0.00 0.00 0.00 0.00 0.00 0.00 0.00 0.00 0.00 0.00 0.00 0.00 0.00 0.00 0.01 0.01 0.01 0.01 0.00 0.00 0.00 0.00 0.00 0.00 0.00 0.00 0.01 0.04 0.00 0.00 0.00 0.00 0.00 0.00 0.00 0.00 0.00 0.00 0.00 0.00 0.00 0.00 0.00 0.00 0.00 0.00 0.00 0.03 0.00 0.01 0.01 0.10 0.11 0.71 0.09 0.15 0.13 0.23 0.44 0.39 0.36 0.11 0.19 0.14 0.19 0.18 0.18 0.23 0.48 0.38
0.00 0.00 0.00 0.00 0.00 0.00 0.00 0.05 0.02 0.03 0.03 0.02 0.00 0.08 0.03 0.01 0.01 0.01 0.01 0.01 0.01 0.00 0.01 0.00 0.00 0.00 0.00 0.00 0.00 0.00 0.00 0.00 0.01 0.04 0.02 0.02 0.02 0.01 0.00 0.00 0.00 0.00 0.00 0.00 0.00 0.00 0.00 0.01 0.00 0.00 0.00 0.00 0.00 0.00 0.00 0.00 0.00 0.00 0.00 0.00 0.00 0.00 0.00 0.00 0.00 0.01 0.02 0.15 0.09 0.12 0.04 0.30 0.24 0.12 0.19 0.09 0.37 0.27 0.24 0.54 0.74 0.71 0.64 0.46 0.47 0.42 0.15 0.36
0.00 0.00 0.00 0.00 0.00 0.00 0.01 0.03 0.05 0.04 0.05 0.01 0.01 0.02 0.01 0.01 0.02 0.05 0.04 0.08 0.02 0.09 0.07 0.02 0.00 0.02 0.01 0.00 0.00 0.03 0.00 0.01 0.01 0.02 0.04 0.03 0.04 0.01 0.00 0.00 0.00 0.00 0.00 0.00 0.00 0.01 0.02 0.01 0.00 0.02 0.00 0.00 0.00 0.00 0.00 0.00 0.00 0.00 0.00 0.00 0.00 0.00 0.01 0.01 0.00 0.01 0.01 0.04 0.06 0.07 0.10 0.18 0.29 0.16 0.23 0.22 0.14 0.22 0.13 0.21 0.15 0.15 0.16 0.11 0.29 0.50 0.83 0.30
0.02 0.00 0.00 0.00 0.00 0.00 0.06 0.04 0.06 0.05 0.03 0.02 0.01 0.03 0.05 0.05 0.03 0.02 0.02 0.01 0.07 0.06 0.01 0.03 0.03 0.06 0.01 0.02 0.00 0.00 0.00 0.00 0.03 0.04 0.03 0.04 0.07 0.02 0.00 0.00 0.00 0.00 0.00 0.00 0.00 0.00 0.00 0.01 0.02 0.05 0.01 0.02 0.03 0.03 0.06 0.21 0.01 0.01 0.00 0.00 0.00 0.01 0.00 0.00 0.00 0.02 0.00 0.08 0.04 0.08 0.14 0.23 0.15 0.15 0.11 0.43 0.28 0.26 0.29 0.40 0.19 0.17 0.03 0.08 0.47 0.30 0.28 0.16
0.01 0.17 0.00 0.00 0.01 0.02 0.01 0.00 0.03 0.04 0.04 0.03 0.01 0.03 0.01 0.06 0.07 0.05 0.02 0.04 0.02 0.03 0.02 0.10 0.02 0.04 0.06 0.02 0.03 0.02 0.02 0.01 0.03 0.06 0.05 0.10 0.09 0.06 0.01 0.01 0.00 0.00 0.00 0.00 0.00 0.00 0.00 0.00 0.01 0.01 0.02 0.11 0.25 0.05 0.00 0.00 0.00 0.01 0.00 0.00 0.01 0.00 0.00 0.00 0.01 0.05 0.01 0.06 0.08 0.08 0.02 0.21 0.16 0.19 0.11 0.22 0.18 0.27 0.24 0.18 0.19 0.38 0.30 0.33 0.39 0.52 0.83 0.68
0.07 0.06 0.02 0.12 0.04 0.15 0.03 0.06 0.03 0.08 0.09 0.05 0.06 0.02 0.01 0.03 0.03 0.06 0.04 0.13 0.05 0.04 0.02 0.04 0.07 0.06 0.16 0.07 0.09 0.04 0.01 0.01 0.01 0.01 0.05 0.07 0.04 0.04 0.03 0.01 0.02 0.01 0.01 0.00 0.00 0.00 0.00 0.01 0.00 0.00 0.00 0.00 0.01 0.00 0.00 0.00 0.01 0.00 0.00 0.00 0.00 0.00 0.00 0.00 0.01 0.01 0.02 0.03 0.05 0.03 0.05 0.04 0.20 0.17 0.08 0.08 0.09 0.15 0.21 0.31 0.40 0.21 0.08 0.08 0.17 0.26 0.56 0.88
0.19 0.05 0.03 0.38 0.19 0.07 0.05 0.08 0.09 0.15 0.10 0.06 0.14 0.03 0.04 0.02 0.04 0.06 0.03 0.04 0.03 0.06 0.14 0.24 0.07 0.12 0.07 0.08 0.09 0.13 0.10 0.06 0.02 0.06 0.03 0.04 0.03 0.03 0.04 0.06 0.02 0.05 0.02 0.01 0.00 0.00 0.00 0.01 0.00 0.00 0.00 0.00 0.00 0.00 0.00 0.00 0.00 0.00 0.02 0.02 0.00 0.00 0.00 0.00 0.00 0.00 0.01 0.02 0.29 0.14 0.05 0.06 0.06 0.21 0.12 0.12 0.06 0.13 0.38 0.64 0.52 0.34 0.20 0.12 0.48 0.73 0.63 0.27
0.08 0.08 0.04 0.04 0.21 0.15 0.10 0.08 0.02 0.10 0.18 0.15 0.11 0.08 0.05 0.06 0.04 0.03 0.04 0.02 0.03 0.05 0.06 0.16 0.14 0.12 0.09 0.07 0.08 0.19 0.19 0.13 0.06 0.12 0.05 0.05 0.04 0.03 0.04 0.05 0.03 0.04 0.03 0.02 0.00 0.00 0.01 0.01 0.01 0.00 0.01 0.00 0.00 0.00 0.00 0.00 0.00 0.00 0.00 0.02 0.00 0.00 0.00 0.01 0.00 0.00 0.00 0.02 0.04 0.11 0.17 0.16 0.15 0.31 0.42 0.36 0.08 0.26 0.31 0.19 0.52 0.46 0.33 0.22 0.29 0.21 0.22 0.28
0.17 0.37 0.80 0.15 0.39 0.09 0.06 0.06 0.04 0.05 0.11 0.13 0.19 0.23 0.16 0.13 0.04 0.02 0.12 0.07 0.07 0.04 0.08 0.09 0.11 0.12 0.09 0.09 0.10 0.16 0.14 0.13 0.06 0.18 0.02 0.02 0.03 0.03 0.04 0.05 0.11 0.05 0.04 0.04 0.02 0.06 0.00 0.03 0.00 0.01 0.01 0.01 0.00 0.00 0.00 0.00 0.00 0.01 0.00 0.00 0.01 0.01 0.00 0.00 0.00 0.00 0.00 0.00 0.10 0.08 0.15 0.17 0.20 0.09 0.21 0.54 0.21 0.11 0.10 0.14 0.41 0.48 0.41 0.31 0.15 0.19 0.20 0.40
0.20 0.46 0.73 0.81 0.33 0.15 0.12 0.07 0.10 0.19 0.18 0.06 0.10 0.23 0.11 0.15 0.13 0.23 0.15 0.08 0.06 0.11 0.18 0.12 0.06 0.06 0.06 0.06 0.09 0.10 0.07 0.05 0.04 0.04 0.02 0.02 0.12 0.06 0.04 0.16 0.03 0.05 0.07 0.05 0.05 0.06 0.00 0.04 0.00 0.03 0.02 0.01 0.00 0.01 0.00 0.00 0.00 0.01 0.01 0.01 0.02 0.00 0.02 0.02 0.02 0.06 0.03 0.11 0.10 0.13 0.06 0.19 0.39 0.22 0.13 0.33 0.42 0.15 0.11 0.02 0.19 0.19 0.22 0.39 0.35 0.21 0.53 0.29
0.28 0.33 0.80 0.91 0.56 0.18 0.08 0.04 0.09 0.08 0.22 0.11 0.25 0.20 0.23 0.11 0.14 0.09 0.14 0.07 0.08 0.22 0.20 0.08 0.06 0.03 0.05 0.08 0.16 0.11 0.08 0.06 0.04 0.04 0.02 0.00 0.00 0.00 0.01 0.01 0.01 0.03 0.06 0.06 0.04 0.09 0.03 0.07 0.04 0.04 0.09 0.02 0.01 0.02 0.01 0.01 0.02 0.02 0.08 0.01 0.01 0.00 0.01 0.02 0.02 0.06 0.12 0.04 0.11 0.14 0.56 0.13 0.31 0.28 0.27 0.11 0.40 0.57 0.14 0.10 0.13 0.06 0.24 0.14 0.16 0.05 0.20 0.60